#timestamp,LO_Frequency,Hit,StdDev 
1535871615.1,286047002.6,N
1535871635.9,286047001.7,N
1535871655.7,286047006.0,N
1535871675.5,286047002.0,N
1535871695.4,286047001.9,N
1535871715.2,286047003.4,N
1535871735.1,286047004.4,N
1535871736.0,286047004.4,N
1535871755.8,286047006.8,Y
1535871775.6,286047003.5,P
1535871795.5,286047003.4,P
1535871815.3,286047002.6,P
1535871835.1,286046999.8,N
1535871855.9,286046998.6,N
1535871875.7,286046995.1,N
1535871895.6,286046996.4,N
1535871915.4,286046995.2,N
1535871935.2,286046997.0,N
1535871955.1,286046996.7,N
1535871956.0,286046996.7,N
1535871975.8,286046998.4,N
1535871995.6,286046995.6,N
1535872015.5,286046994.9,N
1535872035.3,286046995.0,N
1535872055.2,286046996.2,N
1535872075.9,286046993.4,N
1535872095.7,286046995.4,N
1535872115.6,286046996.0,N
1535872135.4,286046995.9,N
1535872155.2,286046995.1,N
1535872175.1,286046991.8,N
1535872176.0,286046991.8,N
1535872195.8,286046992.7,N
1535872215.6,286046994.3,N
1535872235.5,286046995.5,N
1535872255.3,286046994.9,N
1535872275.2,286046995.0,N
1535872295.9,286046993.6,N
1535872315.7,286046993.4,N
1535872335.6,286046993.7,N
1535872355.4,286046990.7,Y
1535872375.2,286046997.7,P
1535872395.1,286046998.8,N
1535872396.0,286046998.8,N
1535872415.8,286046998.2,N
1535872435.7,286046999.5,N
1535872455.5,286047000.5,N
1535872475.3,286046998.6,N
1535872495.2,286046998.6,N
1535872515.0,286046999.9,N
1535872515.9,286046999.9,N
1535872535.7,286047001.2,N
1535872555.6,286046999.3,N
1535872575.4,286047001.1,N
1535872595.3,286046998.2,N
1535872615.1,286047000.7,N
1535872616.0,286047000.7,N
1535872635.8,286047001.0,N
1535872655.7,286047001.0,N
1535872675.5,286046998.2,N
1535872695.3,286046999.5,N
1535872715.2,286046998.0,N
1535872735.0,286046999.3,N
1535872735.9,286046999.3,N
1535872755.8,286047000.5,N
1535872775.6,286046998.2,N
1535872795.4,286047000.3,N
1535872815.3,286047001.4,N
1535872835.1,286047005.5,Y
1535872855.8,286047003.5,P
1535872875.7,286047003.8,N
1535872895.5,286047002.2,N
1535872915.4,286047004.1,N
1535872935.2,286047002.3,N
1535872955.0,286047001.5,N
1535872955.9,286047001.5,N
1535872975.8,286047001.0,N
1535872995.6,286047004.3,Y
1535873015.5,286047002.7,P
1535873035.3,286046998.1,P
1535873055.1,286046999.1,N
1535873075.9,286046996.8,N
1535873095.7,286046999.0,N
1535873115.5,286046998.6,N
1535873135.4,286046999.9,N
1535873155.2,286047000.7,N
1535873175.1,286047002.5,N
1535873176.0,286047002.5,N
1535873195.8,286047004.0,N
1535873215.6,286047007.3,Y
1535873235.5,286047005.5,P
1535873255.3,286047006.9,N
1535873275.1,286047009.0,P
1535873295.9,286047010.4,Y
1535873315.7,286047001.4,P
1535873335.6,286047002.5,N
1535873355.4,286046998.3,N
1535873375.2,286047000.3,N
1535873395.1,286046999.4,N
1535873396.0,286046999.4,N
1535873415.8,286046995.8,N
1535873435.6,286046995.9,N
1535873455.5,286046993.9,N
1535873475.3,286046995.0,N
1535873495.2,286046995.7,N
1535873515.9,286046995.7,N
1535873535.7,286046997.5,N
1535873555.6,286046995.9,N
1535873575.4,286046995.2,N
1535873595.2,286046993.3,N
1535873615.1,286046994.5,N
1535873616.0,286046994.5,N
1535873635.8,286046996.2,N
1535873655.7,286046997.8,N
1535873675.5,286046997.9,N
1535873695.3,286046998.9,N
1535873715.2,286046998.1,N
1535873735.9,286046998.7,N
1535873755.7,286046998.6,N
1535873775.6,286047002.7,N
1535873795.4,286047001.6,N
1535873815.2,286046999.7,N
1535873835.1,286046999.7,N
1535873836.0,286046999.7,N
1535873855.8,286046999.0,N
1535873875.7,286046998.8,N
1535873895.5,286046997.0,N
1535873915.3,286046997.6,N
1535873935.2,286046996.7,N
1535873955.0,286046999.0,N
1535873955.9,286046999.0,N
1535873975.7,286046999.0,N
1535873995.6,286046997.2,N
1535874015.4,286046995.2,N
1535874035.3,286046995.5,N
1535874055.1,286046995.9,N
1535874056.0,286046995.9,N
1535874075.8,286046994.0,N
1535874095.7,286046993.5,N
1535874115.5,286046993.5,N
1535874135.3,286046993.3,N
1535874155.2,286046992.3,Y
1535874175.0,286046996.4,P
1535874175.9,286046996.4,P
1535874195.8,286046993.5,P
1535874215.6,286046993.7,Y
1535874235.4,286046998.4,P
1535874255.3,286047002.1,N
1535874275.1,286047002.0,N
1535874295.8,286047004.3,N
1535874315.7,286047005.2,N
1535874335.5,286047005.8,N
1535874355.4,286047003.4,N
1535874375.2,286047007.2,N
1535874395.0,286047008.4,N
1535874395.9,286047008.4,N
1535874415.8,286047010.7,N
1535874435.6,286047008.0,N
1535874455.4,286047009.9,N
1535874475.3,286047009.4,N
1535874495.1,286047009.4,N
1535874515.9,286047008.6,N
1535874535.7,286047004.6,N
1535874555.5,286047005.9,N
1535874575.4,286047005.2,N
1535874595.2,286047003.3,N
1535874615.0,286047003.4,N
1535874615.9,286047003.4,N
1535874635.8,286047005.6,N
1535874655.6,286047007.5,N
1535874675.5,286047005.3,N
1535874695.3,286047001.4,N
1535874715.1,286047001.5,N
1535874735.9,286047001.3,N
1535874755.7,286047001.4,N
1535874775.5,286047003.3,N
1535874795.4,286047005.1,N
1535874815.2,286047010.0,Y
1535874835.1,286047006.8,P
1535874836.0,286047006.8,P
1535874855.8,286047005.9,P
1535874875.6,286047003.1,Y
1535874895.5,286046996.1,P
1535874915.3,286046995.1,N
1535874935.1,286046995.8,N
1535874955.9,286046994.3,N
1535874975.7,286046995.3,N
1535874995.6,286046997.4,N
1535875015.4,286046997.7,N
1535875035.2,286046995.9,N
1535875055.1,286046995.9,N
1535875056.0,286046995.9,N
1535875075.8,286046994.2,N
1535875095.7,286046992.8,N
1535875115.5,286046990.3,Y
1535875135.3,286046994.6,P
1535875155.2,286046993.1,P
1535875175.0,286046992.1,P
1535875175.9,286046992.1,Y
1535875195.7,286046998.3,P
